This is the latest recevied weather packets stored in our database for station/object EW6851. If no packets are shown the sender has not sent any weather packets the latest 10 day(s).
| Time | Temp. | Humidity | Pressure | Rain* | Wind** | Luminosity | Snow |
|---|---|---|---|---|---|---|---|
| 1778432215 | 20.56° C | 80% | 1014.3 hPa | 0 mm | - | 23 W/m² | - |
| 1778431611 | 20.56° C | 79% | 1014.3 hPa | 0 mm | - | 28 W/m² | - |
| 1778431314 | 21.11° C | 79% | 1014.3 hPa | 0 mm | - | 32 W/m² | - |
| 1778431011 | 21.11° C | 79% | 1014.3 hPa | 0 mm | - | 33 W/m² | - |
| 1778430708 | 21.11° C | 79% | 1014.4 hPa | 0 mm | - | 35 W/m² | - |
| 1778430414 | 21.11° C | 79% | 1014.5 hPa | 0 mm | - | 37 W/m² | - |
| 1778430108 | 21.11° C | 78% | 1014.5 hPa | 0 mm | - | 40 W/m² | - |
| 1778428911 | 21.11° C | 78% | 1014.5 hPa | 0 mm | - | 63 W/m² | - |
| 1778428308 | 21.11° C | 77% | 1014.5 hPa | 0 mm | - | 62 W/m² | - |
| 1778426517 | 21.67° C | 76% | 1014.6 hPa | 0 mm | - | 88 W/m² | - |
| 1778425908 | 21.67° C | 75% | 1014.7 hPa | 0 mm | - | 141 W/m² | - |
| 1778425308 | 22.22° C | 75% | 1014.7 hPa | 0 mm | - | 130 W/m² | - |
| 1778424711 | 22.22° C | 74% | 1014.8 hPa | 0 mm | - | 197 W/m² | - |
| 1778424411 | 22.22° C | 74% | 1014.8 hPa | 0 mm | - | 176 W/m² | - |
| 1778423808 | 22.22° C | 74% | 1014.7 hPa | 0 mm | - | 278 W/m² | - |
| 1778423514 | 22.22° C | 73% | 1014.8 hPa | 0 mm | - | 410 W/m² | - |
| 1778423214 | 22.22° C | 73% | 1014.8 hPa | 0 mm | - | 244 W/m² | - |
| 1778422608 | 22.22° C | 72% | 1014.9 hPa | 0 mm | - | 255 W/m² | - |
| 1778421715 | 23.33° C | 71% | 1014.8 hPa | 0 mm | - | 413 W/m² | - |
| 1778421411 | 22.78° C | 72% | 1014.9 hPa | 0 mm | - | 654 W/m² | - |
| 1778420808 | 22.78° C | 72% | 1014.8 hPa | 0 mm | - | 575 W/m² | - |
| 1778419312 | 23.33° C | 71% | 1014.7 hPa | 0 mm | - | 533 W/m² | - |
| 1778419008 | 23.33° C | 72% | 1014.7 hPa | 0 mm | - | 552 W/m² | - |
| 1778418411 | 22.78° C | 73% | 1014.8 hPa | 0 mm | - | 675 W/m² | - |
| 1778417811 | 22.78° C | 72% | 1014.9 hPa | 0 mm | - | 691 W/m² | - |
* Rain latest hour (hover to see other rain measurements)
** Current wind speed in m/s (hover to see current wind gust speed)